Theta_e
302 294 292 291 294 296 297 298 299 299 300 300 299 298 296 296 297 301 301 304 305 301 299 300 301 301 314 318 319 323 325 322 323 324 325 319 319 321 320 321 323 323 324 327 327 327 329 330 331 333 333 331 333 333 334 335 337 339 340 339 338 343 345 344 341 341 340 340 339 340 339 338 340 341 339 337 339 339 337 345 350 352 352 348 346 344
300 293 293 296 297 298 298 299 300 299 299 299 298 298 297 297 295 301 301 304 305 302 299 301 300 301 311 313 319 323 323 321 319 320 324 317 319 320 322 322 322 323 326 327 325 327 328 329 331 332 331 331 329 332 334 335 336 335 338 338 339 343 342 344 343 341 341 341 340 338 337 338 339 341 337 336 336 335 340 347 346 347 345 345 343 343
292 291 295 298 300 300 300 299 300 298 297 298 297 297 297 297 299 302 303 304 305 302 299 301 299 300 304 312 318 320 320 322 322 320 324 317 318 318 320 320 320 322 323 325 324 326 328 329 330 331 330 331 332 334 334 333 334 333 335 338 341 342 341 341 341 340 337 340 339 339 338 338 337 338 337 335 337 338 344 346 344 343 342 342 343 343
289 293 297 300 300 298 298 299 298 298 298 297 296 295 295 299 296 294 301 304 304 301 299 301 298 300 304 316 315 319 320 323 324 325 326 319 317 318 319 319 320 322 323 323 324 326 328 329 330 330 330 331 333 334 332 333 334 334 334 337 341 340 340 339 339 340 339 339 341 340 339 339 338 336 337 336 336 340 345 341 343 342 344 342 341 339
291 296 300 300 299 298 297 298 297 296 294 297 297 297 297 298 298 298 299 302 303 302 303 301 299 298 301 311 312 316 321 322 322 323 326 321 324 321 323 325 324 323 324 324 325 327 329 329 330 330 331 332 333 334 335 337 336 337 337 340 340 340 339 340 339 339 339 339 339 340 339 338 335 335 332 334 338 341 339 340 340 340 340 339 338 338
295 299 300 298 298 298 297 296 297 296 294 295 298 299 300 301 299 299 301 299 297 296 300 298 292 293 301 306 309 312 315 317 322 319 322 317 319 321 322 322 325 326 327 326 326 328 330 330 331 332 331 331 332 336 338 339 339 339 340 340 340 340 341 340 340 340 339 339 339 336 333 331 331 331 333 335 338 339 338 337 340 339 337 336 336 336
296 300 299 297 298 297 297 296 298 298 294 294 295 301 301 302 301 300 299 298 293 291 298 301 291 289 302 305 313 315 315 316 318 320 321 319 320 321 324 323 325 326 326 328 329 330 330 331 331 331 330 331 332 336 339 339 338 337 338 340 340 340 340 340 340 340 340 338 336 334 332 332 330 328 332 336 342 341 340 341 339 337 337 335 337 338
298 298 298 298 298 297 296 294 298 298 295 293 301 302 302 301 299 299 300 298 297 300 301 301 297 292 293 306 314 314 312 312 314 314 316 319 317 317 320 325 326 327 327 328 328 330 331 331 331 329 331 332 334 336 338 338 337 335 337 340 340 340 338 339 340 340 340 336 336 334 332 330 331 329 328 332 340 340 339 339 337 336 336 338 339 336
298 296 297 296 297 296 295 297 299 300 296 297 302 303 301 301 300 300 299 298 299 297 293 297 299 292 292 304 312 311 307 309 311 313 314 316 319 319 319 322 327 327 328 329 328 330 330 331 331 331 331 334 335 336 337 337 338 338 340 340 340 339 339 340 339 339 338 337 337 335 335 332 333 332 330 334 341 339 339 336 336 335 337 340 337 336
299 299 299 299 297 294 298 300 300 300 296 300 303 304 302 302 301 300 298 297 297 294 290 294 297 291 292 306 307 310 308 306 309 313 315 317 319 318 319 319 321 328 329 330 331 330 331 332 333 333 333 334 335 337 338 338 339 339 339 338 338 339 340 340 340 340 337 336 336 333 332 331 329 329 332 339 338 338 337 335 337 335 337 337 336 338
300 304 304 300 297 299 300 301 301 301 301 303 302 300 299 299 299 300 299 298 296 289 291 296 297 295 289 296 305 306 306 310 310 312 314 315 317 319 320 320 321 323 327 329 330 331 332 333 333 332 331 333 335 336 336 337 337 338 338 337 335 337 339 339 337 337 334 334 336 335 333 331 332 333 336 336 336 336 336 333 333 334 333 334 335 338
300 300 299 300 303 302 302 299 302 302 302 301 299 297 296 296 298 296 296 297 289 287 293 297 297 297 288 293 301 309 315 313 311 310 313 314 315 318 319 321 323 324 324 325 327 330 331 332 331 332 331 333 334 334 334 336 336 336 337 337 335 336 336 336 336 335 335 335 335 335 333 331 331 334 336 335 332 333 332 334 333 332 332 332 334 333
295 296 300 300 304 301 299 297 298 300 300 298 297 296 291 288 289 286 291 286 287 287 294 298 298 294 293 299 302 311 310 311 313 313 315 317 318 321 323 324 324 325 324 323 323 328 330 331 331 331 333 333 332 332 332 333 335 335 336 335 335 333 335 335 335 336 336 337 337 337 335 335 336 336 334 332 333 334 335 331 329 330 329 331 330 329
293 298 298 299 300 302 301 293 293 294 296 296 294 293 290 286 284 282 286 288 289 293 297 297 299 292 298 301 304 304 308 312 313 313 316 319 322 321 323 325 325 325 323 323 324 329 330 331 331 332 332 332 332 332 333 334 335 335 335 335 334 333 334 334 336 337 336 337 336 336 335 335 335 334 334 334 335 331 330 330 329 329 329 329 328 327
286 287 294 297 293 301 300 298 297 295 295 295 298 296 293 292 287 282 285 283 285 289 293 298 294 291 292 296 305 305 309 311 314 314 322 322 323 322 324 324 325 324 323 324 325 330 330 332 332 332 333 333 332 333 333 333 333 334 334 333 333 332 333 333 335 335 335 334 335 335 334 334 334 333 331 330 330 331 329 328 328 328 329 328 326 326
290 291 296 300 299 300 298 301 301 298 296 297 298 299 294 292 297 288 289 290 290 289 290 293 292 297 296 305 307 308 310 311 313 313 322 318 321 321 323 323 325 325 325 328 329 330 331 332 332 332 332 332 332 332 333 332 333 333 333 333 333 333 332 333 334 333 333 333 333 334 333 333 331 330 330 329 329 330 330 328 327 327 327 327 326 328
292 290 298 299 302 300 299 301 300 301 289 295 296 291 294 301 298 291 291 296 292 290 288 294 294 298 302 305 306 307 306 309 310 312 313 318 317 320 321 324 326 327 327 329 329 330 331 332 332 333 332 331 332 333 333 332 333 333 333 332 332 333 333 334 333 332 331 331 331 331 332 330 330 329 328 328 328 328 328 328 327 326 326 327 328 327
290 291 298 297 295 300 302 302 301 301 301 297 291 295 301 303 301 295 287 289 288 286 287 294 291 293 293 291 304 305 305 307 308 310 311 319 319 318 321 324 326 326 328 329 329 331 331 330 329 331 332 332 332 333 333 333 333 333 333 332 332 332 331 331 331 330 330 329 329 329 330 329 328 327 327 327 327 327 327 327 326 326 325 325 326 328
297 289 294 298 298 299 302 301 298 302 303 298 295 302 294 288 288 294 291 284 284 284 286 290 293 293 294 295 301 301 304 306 309 309 312 314 316 319 322 324 324 326 327 328 328 330 328 327 327 329 329 333 332 333 334 333 332 332 332 332 332 331 331 331 330 330 330 329 328 328 327 327 327 328 327 327 327 327 325 324 324 323 325 326 327 326
298 290 291 298 298 299 299 297 290 295 300 302 302 298 300 297 293 291 291 293 291 285 285 287 291 289 297 298 301 301 304 307 311 309 310 313 315 319 321 323 324 325 326 327 328 329 329 328 327 328 328 329 331 332 333 333 332 331 332 332 331 331 331 330 330 329 328 327 327 327 327 327 325 325 325 325 325 324 323 323 323 323 324 325 326 328
293 303 287 294 299 297 291 295 293 295 293 294 295 294 295 297 300 297 298 293 290 287 286 286 286 292 299 304 302 303 305 308 309 314 314 315 317 320 321 324 325 326 325 325 328 329 329 328 327 327 327 328 330 330 331 331 331 330 331 330 330 328 328 329 328 328 326 326 326 326 325 325 325 325 324 324 323 323 323 323 322 323 324 324 328 329
292 294 288 292 292 291 292 298 298 299 298 296 295 293 294 293 291 288 288 297 295 291 287 286 285 295 302 305 305 305 308 308 308 310 314 316 317 320 323 323 324 326 326 327 328 329 329 328 327 324 326 327 328 328 329 330 331 330 329 329 328 328 327 326 325 325 325 326 325 324 324 324 324 323 323 323 323 322 322 322 322 323 324 325 325 327
300 298 294 289 291 292 296 299 302 302 300 299 297 295 298 296 295 292 285 290 294 294 296 294 288 291 307 306 310 317 311 308 310 310 316 318 321 322 322 323 326 327 328 328 328 330 331 329 325 325 325 326 325 327 328 328 329 328 328 328 327 326 326 326 325 325 325 324 323 323 323 323 323 322 322 322 321 321 321 321 322 322 324 326 326 325
305 294 291 291 295 297 299 300 301 301 300 297 298 299 297 294 295 295 293 296 292 293 291 291 287 294 307 313 316 317 315 313 315 312 312 321 322 323 323 324 327 326 326 328 327 328 330 329 326 325 325 325 325 325 327 328 328 328 328 327 326 325 325 324 324 323 323 322 322 322 323 322 322 322 321 320 320 320 321 322 322 322 322 324 326 321
292 296 293 288 288 290 293 296 295 299 299 296 295 297 298 298 298 299 298 300 291 293 293 290 286 295 308 315 314 314 310 310 310 312 316 320 321 321 321 323 324 323 322 322 323 323 326 327 326 326 325 325 326 327 327 327 327 327 326 325 324 324 324 323 323 321 321 321 320 321 321 320 321 320 320 320 320 320 321 321 322 323 321 324 323 324
295 294 292 286 283 280 280 282 284 288 292 296 297 297 298 297 297 296 291 293 289 293 294 291 290 302 310 311 311 309 310 312 314 317 319 320 320 322 323 323 320 320 320 320 321 323 324 326 327 327 327 327 326 326 326 326 326 325 325 324 324 323 322 321 321 320 320 319 319 319 319 319 319 319 319 319 319 319 320 321 321 321 322 321 319 319
297 298 296 293 290 287 289 292 296 296 295 291 294 296 296 298 299 299 297 292 289 293 292 295 296 298 305 306 305 307 311 310 311 317 319 320 321 323 324 323 322 320 320 321 322 323 323 326 326 326 326 325 325 325 325 325 324 323 322 322 322 321 320 320 319 319 318 319 319 318 317 317 318 318 318 318 319 319 319 319 321 320 319 320 319 317
297 294 296 297 295 295 296 296 297 296 293 294 295 295 296 296 298 298 292 291 297 294 288 296 300 302 302 305 304 306 311 313 316 317 320 322 324 323 324 321 315 319 319 322 322 322 324 324 324 325 325 324 324 324 324 324 323 322 321 320 320 320 320 319 318 318 318 318 318 317 317 317 317 317 317 318 318 318 319 320 320 319 320 318 316 316
296 290 296 297 295 297 296 297 297 296 296 295 296 296 295 296 297 297 298 297 299 291 290 299 302 300 300 303 306 308 311 313 313 314 318 321 323 323 323 319 317 320 319 320 323 322 323 323 323 324 324 324 323 322 322 322 321 321 320 319 319 318 318 318 318 317 317 317 316 316 317 317 317 317 317 317 317 317 318 318 319 318 318 318 317 317
298 292 296 297 296 297 297 297 298 296 296 295 295 296 296 296 297 297 299 299 298 298 299 299 301 301 304 304 307 309 314 314 315 316 316 318 320 322 323 320 319 320 320 320 322 322 323 323 323 323 323 323 322 321 320 319 319 319 319 318 318 317 317 317 316 316 316 315 316 316 316 316 316 316 317 317 316 317 317 317 318 317 317 316 315 314
296 291 296 297 294 294 298 298 297 297 296 294 296 297 297 297 296 297 298 301 301 299 300 300 300 299 305 311 309 314 317 316 315 315 315 318 320 321 321 321 321 322 321 322 322 322 323 323 323 323 322 321 321 319 319 319 319 319 318 318 317 316 316 317 315 315 315 315 316 316 316 316 315 316 315 316 316 317 316 316 317 316 315 315 314 313
298 292 299 297 290 292 296 297 297 298 296 295 295 296 297 296 295 297 295 300 298 296 300 300 297 297 306 310 311 312 318 317 316 318 319 319 318 319 321 321 320 321 322 322 322 322 321 321 321 321 320 320 320 319 319 319 319 318 317 316 315 315 316 315 315 314 314 315 316 316 315 315 315 315 315 316 315 315 315 316 315 314 314 314 313 312
297 294 292 292 289 289 296 296 297 297 295 291 291 296 297 298 298 300 299 301 302 302 297 293 295 304 309 311 309 310 312 317 318 320 320 321 321 318 315 318 321 321 322 322 322 321 321 320 320 320 320 320 319 319 320 319 317 316 316 315 316 315 314 313 314 313 314 315 315 315 315 315 315 315 315 315 315 315 315 314 313 313 312 312 312 311
298 296 293 296 288 289 295 296 296 292 284 286 301 304 301 299 298 297 297 300 303 303 300 302 303 310 312 312 311 311 311 312 318 321 323 321 320 320 319 319 321 323 323 323 322 321 320 320 320 320 318 317 318 318 318 317 315 314 314 314 314 313 313 313 314 314 314 315 315 315 315 315 315 314 315 315 314 314 313 313 312 313 312 311 310 309
296 295 293 295 290 289 293 294 288 284 286 304 306 308 308 303 301 300 301 300 302 302 304 301 303 306 309 310 312 315 315 318 319 318 321 323 322 321 322 322 322 322 322 322 321 320 319 319 319 317 316 316 316 315 314 313 313 313 313 313 312 313 312 313 313 314 314 314 315 315 315 315 315 314 314 314 314 313 312 312 312 311 311 310 309 308
293 294 293 291 292 293 290 289 282 285 299 303 307 307 310 306 304 302 300 302 302 302 302 301 303 305 311 310 313 314 316 317 319 318 320 323 322 321 322 322 323 323 322 321 318 318 319 318 318 317 316 315 315 315 314 313 313 312 312 313 312 312 312 312 313 313 314 314 314 315 315 314 314 313 313 313 313 312 311 311 310 310 310 309 308 307
299 297 294 290 295 287 289 289 288 296 297 301 300 303 303 300 301 298 291 297 305 304 303 302 303 304 306 313 313 314 316 316 315 315 320 322 322 323 323 323 324 323 321 319 319 319 320 320 319 318 316 316 315 314 314 314 313 312 312 312 312 312 312 312 312 313 314 314 314 314 314 314 313 313 312 312 311 311 310 310 309 309 309 308 307 306
300 294 296 291 289 293 289 287 288 287 285 292 302 308 310 310 307 308 301 297 305 304 305 304 303 305 308 313 311 314 317 309 307 310 317 322 323 323 324 324 325 323 320 319 320 320 321 320 319 317 316 316 316 315 315 314 314 313 312 312 311 311 311 312 312 313 314 314 314 314 314 313 313 312 312 311 310 310 309 309 309 309 309 307 306 305
300 300 298 292 289 290 289 286 286 284 287 300 304 307 310 312 311 311 299 293 304 306 306 305 304 305 310 311 311 314 309 304 304 310 318 320 322 323 323 324 324 321 319 319 319 318 318 318 317 316 317 316 315 315 315 315 314 313 312 312 311 311 311 311 312 313 314 314 314 314 313 313 313 312 311 310 309 309 308 308 308 308 307 306 305 304
296 294 292 291 289 290 288 287 286 288 290 300 305 307 310 311 308 302 288 289 304 306 307 307 305 307 314 315 315 313 308 302 301 313 320 321 322 323 323 323 320 318 318 320 321 320 319 318 316 316 316 315 315 316 315 314 314 312 312 311 312 311 311 312 313 314 314 314 314 314 313 313 312 312 310 309 308 308 308 307 307 306 306 305 304 303
292 291 292 289 290 290 288 289 290 290 300 307 307 309 310 313 305 290 286 294 311 314 313 309 307 309 316 315 315 311 313 315 317 320 321 321 321 321 323 321 319 318 318 319 318 313 318 317 317 316 315 316 316 315 315 314 313 312 312 312 311 311 312 313 314 314 314 314 313 313 312 312 312 311 310 309 308 308 307 307 306 306 306 305 304 303
291 291 291 292 289 289 290 287 288 294 302 308 309 310 311 305 290 290 304 313 313 314 315 315 309 312 317 317 318 317 317 319 320 320 320 320 320 321 321 319 318 318 318 317 314 317 317 317 317 316 316 316 315 315 315 314 312 312 312 312 312 312 314 314 313 313 313 313 312 312 312 311 311 310 310 308 307 307 306 307 307 307 305 304 303 302
291 288 288 288 290 291 290 287 287 286 296 309 309 307 309 295 295 308 311 313 315 315 316 315 316 313 315 315 317 318 319 319 320 320 319 320 321 321 320 319 318 317 316 316 315 315 316 315 315 314 314 315 314 314 314 313 311 311 311 311 312 314 314 313 313 313 312 312 311 311 310 310 309 308 307 307 307 307 306 306 306 306 305 304 304 302
298 289 289 290 295 287 287 286 287 298 303 310 307 296 304 308 312 314 312 310 314 315 315 316 315 316 318 316 315 317 318 317 318 320 319 320 321 321 321 320 318 316 316 316 316 315 315 314 314 313 314 314 314 314 313 312 310 310 310 310 312 313 313 312 312 312 311 310 309 309 308 308 308 307 308 307 307 306 306 305 305 304 304 304 302 301
298 294 298 291 296 292 292 297 304 310 310 312 313 312 313 315 316 315 314 313 312 314 317 316 316 318 318 317 316 316 315 317 318 319 320 320 320 320 319 318 316 315 315 315 314 314 314 314 313 313 313 313 313 313 312 312 310 309 308 310 311 311 311 311 311 310 309 308 308 308 307 307 307 306 306 306 306 304 304 304 304 303 304 304 302 301
303 305 306 302 300 306 307 309 311 309 311 312 314 314 312 313 315 317 315 314 315 317 317 316 317 317 317 318 315 315 315 316 317 319 320 320 320 320 318 317 316 316 316 315 315 314 314 314 313 312 312 312 312 312 312 312 311 308 308 310 310 311 311 311 309 308 308 308 307 307 306 305 305 305 305 304 304 304 304 303 303 303 303 302 301 301
303 304 302 298 301 297 292 308 307 308 310 312 312 313 315 316 315 316 315 315 316 317 317 318 318 317 318 318 316 315 315 317 316 320 318 317 316 316 316 315 316 315 315 314 315 313 313 312 312 311 311 310 311 311 311 311 310 309 309 309 310 311 311 309 308 307 307 306 306 306 305 303 302 302 303 302 302 303 303 303 303 304 303 303 302 301
298 306 300 299 299 294 297 304 307 309 310 312 312 311 311 313 314 315 316 316 317 318 318 318 318 317 318 316 316 315 314 318 318 319 318 316 316 316 315 315 315 314 315 315 315 314 313 312 311 311 311 310 311 311 310 309 309 309 309 309 310 310 309 307 307 306 306 305 304 303 303 302 295 300 301 300 300 301 303 303 301 298 296 297 300 303
303 304 293 299 298 300 304 305 306 308 309 310 312 313 314 314 314 314 316 316 317 315 316 317 317 317 317 316 318 316 314 316 318 319 317 315 315 315 315 314 314 314 314 313 314 313 313 312 312 312 311 310 310 310 309 309 309 309 309 309 310 309 308 307 306 305 305 304 303 302 301 301 301 300 298 296 294 292 291 295 299 296 294 294 293 295
302 297 302 298 295 294 295 299 304 296 295 306 309 312 313 314 315 313 314 314 315 314 315 314 316 317 316 317 319 316 314 314 318 318 317 317 315 315 315 315 314 314 314 314 314 313 313 313 312 311 310 310 310 309 308 308 308 309 310 310 309 309 307 305 305 304 303 302 302 301 300 301 301 300 297 294 292 291 290 288 289 293 295 293 290 290
303 302 302 296 295 295 302 306 309 308 308 309 310 312 313 314 314 314 313 313 313 315 316 315 313 314 316 316 317 316 315 314 316 318 317 317 316 316 316 314 314 313 313 313 313 313 312 312 312 311 310 310 309 308 308 307 308 309 310 310 310 309 307 305 303 302 302 301 301 299 301 301 300 298 297 296 294 293 291 290 290 289 289 290 290 290
Wind_Speed
12 15 16 18 15 17 19 19 18 17 16 16 15 14 15 15 14 14 18 14 20 15 17 18 16 17 15 15 14 11 10 10 9 8 5 16 9 5 7 4 9 8 6 7 11 8 9 6 6 10 8 6 8 7 8 10 10 9 6 7 7 5 4 5 5 5 5 5 5 3 3 4 3 1 2 2 3 4 9 7 2 2 1 3 5 5
15 16 17 19 19 19 21 18 16 18 21 18 13 15 12 15 15 14 16 15 19 13 14 18 17 18 17 16 16 15 12 12 12 11 9 16 12 4 7 7 6 5 1 7 4 9 10 8 6 7 7 9 12 6 8 8 5 9 8 6 5 5 5 4 5 5 5 3 3 2 3 3 2 2 3 3 4 3 9 2 4 4 4 4 4 3
18 19 17 18 18 18 18 19 18 19 21 20 15 12 11 12 15 14 16 19 16 13 10 17 17 15 16 19 16 16 15 13 11 11 12 16 14 8 8 11 7 10 8 5 8 8 9 13 11 8 8 9 11 9 9 6 9 9 7 7 5 6 6 5 5 5 3 3 3 3 3 3 2 4 1 2 4 9 3 3 5 5 5 4 3 3
16 16 19 19 17 19 18 20 20 18 18 15 14 14 12 12 13 11 17 14 9 7 8 12 15 12 13 17 13 11 13 11 11 9 13 15 14 13 12 13 14 12 12 12 13 14 12 14 13 10 9 9 10 9 9 8 10 8 7 7 7 7 7 6 5 5 4 3 3 3 5 3 2 3 3 3 5 9 3 4 4 4 3 3 5 5
16 14 17 19 19 20 19 18 18 15 15 17 17 14 10 15 15 15 9 12 10 10 11 11 10 10 12 16 11 11 11 10 9 8 13 14 9 12 9 9 14 15 14 13 13 14 14 13 12 14 12 10 11 9 10 10 10 8 11 9 9 8 7 6 7 6 4 3 4 4 3 3 4 2 4 3 6 3 4 4 3 4 5 6 6 5
17 17 19 21 21 21 20 17 19 16 14 15 18 17 14 13 14 21 9 13 6 9 12 14 9 11 7 18 17 13 10 8 1 8 11 14 11 13 14 11 11 11 11 13 13 13 14 13 12 14 14 12 10 10 10 9 9 8 8 9 9 7 7 7 8 7 5 3 4 5 3 4 4 4 2 3 2 2 4 3 3 5 5 5 5 5
13 17 20 22 21 21 22 17 19 19 14 14 14 19 19 14 15 17 18 13 9 10 10 15 14 6 11 16 14 12 11 7 4 4 7 11 6 6 9 12 11 12 12 12 13 12 10 7 11 12 13 12 13 10 9 8 9 11 7 8 8 7 6 6 6 7 5 5 5 5 4 6 7 6 5 3 3 3 3 5 4 5 4 4 2 2
15 21 21 22 21 20 19 18 18 21 15 13 11 18 18 18 17 18 18 12 7 6 11 16 14 11 10 12 15 15 13 9 5 1 3 5 11 9 8 10 12 12 14 14 15 15 14 11 11 12 12 11 12 11 9 8 8 10 10 9 9 8 7 6 7 7 5 6 5 5 3 6 6 7 4 6 2 3 4 4 5 4 4 1 1 3
18 19 21 23 21 17 18 17 16 20 16 10 12 17 18 17 15 14 12 13 10 8 10 12 17 11 9 12 14 16 11 8 7 8 7 8 10 12 12 11 10 13 12 13 14 14 15 12 11 11 13 12 12 11 10 10 10 10 10 9 9 9 8 7 8 7 6 5 5 4 5 6 7 6 4 6 1 3 3 4 3 3 2 1 3 3
14 18 20 20 18 16 16 18 16 20 17 15 15 14 14 15 14 15 13 13 11 10 9 13 16 11 11 11 9 10 12 9 8 7 7 6 7 9 8 7 10 7 12 12 14 13 13 13 11 11 13 11 9 9 10 9 9 10 10 10 10 8 8 9 8 7 7 6 6 5 6 7 6 3 8 3 3 3 4 3 2 3 2 3 3 2
15 15 17 15 18 15 16 17 17 18 19 14 17 11 14 14 11 11 11 11 8 8 13 16 18 13 9 10 15 14 11 14 9 6 5 6 7 6 7 9 11 7 3 9 11 12 12 12 13 13 14 13 10 9 11 11 10 9 9 11 11 10 8 8 8 8 8 6 5 5 6 7 5 5 5 3 2 2 2 3 3 4 4 3 3 3
19 17 15 14 17 14 16 16 18 16 18 18 12 11 12 10 6 7 4 6 7 10 15 17 15 20 13 9 9 14 20 19 17 14 14 14 13 13 13 14 15 11 7 6 5 11 12 13 12 12 13 13 14 12 11 9 10 10 9 11 13 12 10 9 8 8 6 7 7 6 8 8 9 7 2 2 3 2 3 2 3 5 5 3 3 5
18 18 15 16 17 22 18 16 16 16 17 18 13 11 12 9 5 6 8 8 10 7 9 15 16 15 16 6 9 14 20 22 21 19 21 20 18 17 18 17 12 13 12 11 12 9 11 11 12 13 13 13 14 13 13 13 12 12 12 12 12 11 10 9 9 8 5 5 5 5 6 6 5 4 4 3 2 2 1 4 6 5 5 4 5 5
14 18 21 19 17 16 17 16 16 15 17 19 15 13 14 12 10 8 10 6 8 9 14 11 13 12 8 7 14 12 16 16 17 22 25 24 21 17 16 13 11 11 11 9 11 11 12 11 13 14 13 12 11 13 13 12 11 8 11 12 12 11 9 9 8 7 7 6 6 5 6 6 5 4 3 3 1 4 5 4 4 4 4 4 6 6
14 16 20 20 13 16 16 15 14 12 15 16 12 13 12 11 9 8 9 9 9 7 12 14 10 7 10 5 11 13 11 15 19 17 20 20 19 19 16 15 14 13 11 11 12 12 13 12 13 13 11 10 11 13 13 12 12 12 11 12 13 12 9 9 8 8 9 7 6 6 7 6 5 5 5 4 4 4 6 5 5 5 5 5 6 4
19 13 17 17 10 17 17 17 15 16 13 14 11 10 11 13 8 10 6 8 7 8 7 9 5 7 10 3 2 6 11 13 16 16 20 17 15 17 15 16 15 15 14 12 13 13 14 14 14 13 10 11 11 13 11 13 12 12 12 12 14 11 9 8 10 9 8 7 6 7 7 7 6 5 4 4 5 5 5 5 5 5 5 5 5 2
17 13 17 16 15 20 21 18 16 16 12 13 12 15 14 11 11 4 3 7 3 3 6 3 8 8 7 8 4 7 7 12 12 18 20 19 17 15 13 12 14 12 16 12 12 12 15 15 12 10 12 10 11 10 10 11 10 10 10 10 11 12 9 9 10 10 8 7 7 7 7 6 6 5 5 5 5 5 5 5 5 5 5 4 2 2
10 11 18 19 20 16 20 19 18 19 12 11 13 13 12 13 13 6 6 5 4 6 4 9 12 11 10 5 10 9 1 7 6 15 19 21 20 18 13 12 11 13 12 15 14 13 14 13 12 9 10 12 11 12 13 13 12 12 10 11 10 10 11 11 11 10 8 9 8 7 6 6 6 6 6 6 6 4 4 5 5 4 4 4 2 1
12 10 16 21 19 16 18 18 20 19 17 12 14 9 12 9 11 9 3 7 9 7 4 10 14 10 12 7 11 13 8 7 11 14 18 19 18 16 17 16 14 14 14 13 13 14 13 12 12 11 10 10 12 10 11 12 12 11 11 10 10 11 10 10 9 9 9 9 6 5 6 6 6 6 6 6 5 4 6 6 6 5 3 2 1 3
11 6 11 18 21 18 16 15 13 13 17 18 15 15 13 6 10 7 5 6 7 6 6 9 14 7 12 10 10 12 12 10 14 15 17 18 17 16 14 16 17 14 12 12 14 14 15 15 14 13 11 11 10 10 9 10 10 11 11 10 10 11 10 10 10 8 9 8 7 6 5 5 6 7 7 5 4 5 7 7 6 5 4 3 3 2
6 3 8 16 18 15 14 13 15 15 16 15 13 14 12 8 6 9 9 11 8 6 7 5 7 8 8 4 7 10 13 11 13 16 16 17 17 17 17 14 13 14 12 12 13 14 16 16 15 12 9 8 7 6 8 10 11 11 10 10 10 11 11 10 9 9 8 6 6 7 6 6 6 6 6 6 7 6 6 5 5 4 3 4 2 0
2 7 8 14 15 16 15 14 14 15 14 12 10 11 14 13 11 13 10 9 9 8 6 6 6 7 7 8 10 11 12 12 13 13 16 18 18 18 16 15 15 13 14 14 13 13 15 15 15 11 7 7 6 6 9 9 10 11 11 10 10 9 9 10 9 8 8 6 6 7 6 7 6 6 6 6 5 6 6 6 4 3 2 2 3 2
5 7 7 9 13 14 16 16 16 15 15 15 11 10 13 12 11 11 7 8 8 8 9 10 4 4 4 8 4 2 9 13 12 13 14 18 18 17 16 16 13 13 13 12 12 11 12 16 16 16 15 13 13 10 11 11 10 12 11 11 9 10 9 9 8 8 7 7 7 7 6 6 6 6 6 6 5 6 6 6 6 3 2 1 2 2
3 5 10 12 13 13 14 16 18 17 16 16 15 12 11 14 14 8 7 5 6 8 8 6 6 1 8 6 2 6 3 1 2 4 12 16 14 14 16 15 15 11 12 10 9 8 8 13 16 14 16 13 11 12 13 12 12 12 11 11 11 11 11 10 9 8 8 7 7 7 7 7 7 7 6 6 5 6 5 5 5 4 3 2 1 6
5 6 10 11 11 13 14 14 16 18 14 12 12 12 12 13 18 11 10 7 5 10 11 7 8 3 2 4 3 8 8 8 8 6 5 17 13 15 15 14 11 11 10 11 13 12 8 11 17 16 17 16 14 14 13 13 13 12 12 12 12 11 11 10 8 8 8 8 8 6 6 7 7 7 7 6 5 5 5 5 4 3 5 2 2 2
6 8 9 10 12 14 15 17 19 18 17 11 14 16 16 17 17 13 9 9 6 7 15 6 1 6 6 2 4 3 8 6 4 10 13 18 18 15 13 13 14 12 11 10 11 11 13 14 15 15 15 15 13 13 13 12 12 12 12 12 11 11 10 10 8 9 8 8 8 7 7 8 8 8 7 7 6 5 4 4 4 4 3 2 5 6
5 9 11 11 12 11 12 11 12 13 13 14 17 17 19 17 13 11 8 6 7 6 8 11 4 7 7 4 5 6 5 6 9 7 11 15 14 12 12 12 12 11 11 11 12 12 12 12 14 14 14 14 14 14 13 13 13 12 12 12 12 11 10 10 10 10 9 8 8 9 8 7 6 6 6 6 6 5 5 5 5 6 5 4 5 8
7 8 13 14 14 13 14 13 15 18 16 16 17 18 17 18 14 14 8 7 9 5 6 7 5 7 6 5 6 5 4 11 13 8 8 10 11 13 12 11 11 10 9 10 14 16 15 13 13 13 13 15 14 14 14 14 13 13 12 12 12 12 10 9 10 10 9 8 8 9 9 8 7 6 6 5 5 5 4 4 5 5 3 7 9 7
6 4 9 11 13 13 17 17 17 17 17 16 15 15 17 18 17 13 9 13 11 5 4 8 10 9 8 8 9 5 4 13 10 8 5 3 6 9 14 18 17 15 15 14 16 13 14 14 12 12 13 14 15 16 15 14 14 12 12 14 13 13 12 10 11 11 10 9 9 9 9 8 7 7 7 8 7 6 5 5 4 5 5 5 6 7
6 7 11 12 11 12 16 17 13 14 14 17 16 15 16 17 15 13 11 14 13 8 9 6 4 8 11 11 12 8 14 13 10 8 6 6 6 11 12 13 15 17 18 17 18 16 14 14 13 12 14 15 16 16 15 14 14 14 14 14 13 14 12 12 12 12 11 10 9 9 9 8 8 7 7 7 7 7 7 6 5 5 5 6 8 8
6 4 10 10 8 6 4 3 10 16 14 15 16 16 16 14 16 16 12 8 8 10 8 8 6 6 3 7 10 12 14 13 11 11 8 8 8 11 11 12 12 15 15 16 17 15 15 15 14 13 15 16 17 17 16 15 14 14 14 13 14 14 14 14 14 12 11 11 11 10 9 9 9 8 8 7 7 7 7 7 6 6 6 6 8 7
7 3 7 7 3 5 7 5 9 10 16 15 14 15 15 16 15 14 11 8 10 10 9 7 5 2 5 8 11 11 14 16 16 16 14 12 13 11 12 14 15 14 15 16 16 14 15 15 15 15 15 14 15 17 15 14 14 14 14 12 13 13 13 12 12 12 11 10 10 10 11 10 10 9 9 8 9 8 7 7 7 7 7 7 7 6
7 5 4 4 3 3 8 4 12 13 14 14 13 16 16 13 11 9 12 12 10 8 5 2 6 6 9 8 10 10 11 11 14 14 13 14 14 12 11 11 13 16 17 16 16 16 15 15 14 15 15 14 13 12 12 13 12 10 9 8 8 7 9 11 12 11 11 11 10 10 10 10 11 10 9 8 9 8 7 8 8 7 8 8 6 5
8 6 4 9 4 3 6 6 5 3 8 6 1 6 12 10 13 11 11 9 8 8 6 6 4 9 11 9 8 9 9 10 10 8 8 9 9 13 17 12 14 15 16 15 13 15 16 13 13 12 12 12 13 13 12 12 12 12 11 11 10 10 9 10 11 10 11 11 11 11 10 11 11 10 9 9 8 8 8 8 7 7 8 7 6 6
9 5 4 9 4 5 6 3 2 2 3 6 5 10 4 13 13 11 8 12 10 12 10 9 8 8 8 6 7 10 8 9 10 12 10 11 10 7 9 14 14 17 17 15 14 14 16 16 15 15 16 13 13 13 13 13 13 13 12 11 11 11 10 10 11 11 11 11 11 10 10 10 9 10 9 8 8 8 8 8 7 8 7 6 6 6
4 5 3 4 4 6 5 4 3 4 4 5 7 5 7 7 6 11 10 11 13 13 13 12 7 8 13 6 8 3 7 9 6 6 8 12 11 9 10 11 11 12 15 12 15 16 17 17 17 17 15 12 14 14 13 13 12 12 12 12 12 11 11 12 11 11 9 10 9 9 9 10 9 9 9 9 8 8 8 7 8 7 6 6 6 6
11 8 3 4 5 6 6 6 3 3 5 2 4 2 2 4 4 4 3 11 10 10 12 11 12 11 8 13 14 10 8 10 7 4 4 11 11 11 11 11 12 10 11 14 18 16 16 16 17 16 14 14 14 14 13 13 13 13 13 12 12 12 12 11 12 11 10 10 10 9 9 11 10 9 9 9 9 9 8 7 7 7 5 6 6 6
13 10 5 5 4 5 7 7 5 4 4 6 1 6 6 7 3 5 5 5 9 12 11 12 13 10 7 14 14 12 7 8 6 7 8 10 9 10 12 11 12 12 14 15 14 14 13 14 14 15 14 15 14 14 15 15 14 14 13 13 12 12 12 12 12 11 10 10 10 10 10 9 10 10 9 9 9 9 8 7 6 6 5 6 6 6
11 8 4 3 3 4 5 4 5 4 1 1 2 1 5 5 5 4 5 8 3 7 10 12 11 11 9 14 13 12 8 7 8 8 10 10 10 10 12 13 15 13 15 16 15 14 14 14 15 15 13 14 14 13 13 14 15 13 13 13 13 12 12 11 12 12 11 11 10 10 11 10 10 9 9 9 9 8 8 7 7 6 6 6 6 6
11 5 3 4 5 5 3 4 4 0 1 4 2 1 1 5 1 5 9 7 2 6 8 8 9 7 13 12 13 12 10 5 4 10 13 14 14 12 12 12 14 17 16 16 16 16 15 15 15 14 14 14 14 14 14 12 11 12 13 13 12 11 11 10 10 10 9 9 9 10 10 8 9 8 9 10 8 7 6 6 7 7 6 6 5 5
7 4 5 5 6 5 7 5 3 1 2 7 5 4 2 2 6 7 8 1 7 7 5 9 11 6 13 10 10 7 2 6 9 15 14 15 15 14 13 13 14 16 16 16 15 13 13 14 15 14 14 13 14 14 13 12 12 12 12 13 12 12 10 10 10 10 9 8 9 11 11 9 8 9 9 8 7 7 7 6 7 6 6 6 5 5
8 5 5 6 6 6 5 5 4 4 5 7 6 5 6 5 5 6 4 4 4 7 6 9 8 8 13 9 2 3 6 8 14 13 14 15 15 14 16 17 16 14 13 13 15 14 14 14 14 15 14 12 13 14 13 13 12 12 12 12 12 12 11 9 10 10 10 10 10 10 10 10 10 9 8 8 7 7 6 6 6 6 7 6 6 6
6 5 7 7 4 4 4 4 5 4 3 6 9 7 1 2 2 3 1 6 5 6 8 10 14 8 13 9 5 6 7 12 12 13 14 13 14 15 17 17 16 14 15 16 15 14 14 12 13 14 13 13 14 14 12 12 12 11 10 9 9 10 10 10 10 10 11 10 10 10 10 10 10 8 8 7 7 7 7 6 6 7 7 6 6 6
11 6 5 5 4 4 5 5 0 4 9 6 4 2 4 7 4 2 2 6 8 6 6 7 8 11 7 10 8 6 7 10 9 9 12 14 14 16 15 16 14 14 15 14 14 14 13 13 12 12 14 13 12 11 11 11 10 10 11 10 8 7 10 11 10 10 9 9 11 11 10 11 10 8 7 8 8 7 7 6 7 7 5 5 5 6
11 3 4 1 1 2 2 5 6 6 8 7 7 9 8 8 5 4 6 5 5 7 6 7 8 10 10 6 8 6 6 8 7 7 11 13 15 16 17 15 17 17 15 16 14 13 13 14 14 13 14 12 12 10 11 11 12 12 12 10 8 8 10 11 10 9 10 11 11 11 11 9 9 9 8 7 7 7 7 8 7 6 6 5 5 5
3 8 4 4 7 11 8 6 9 8 7 8 8 8 8 6 6 6 6 6 6 6 5 5 5 4 6 5 7 4 3 10 8 7 12 11 13 13 13 17 17 17 17 15 14 13 13 14 15 14 14 13 12 11 10 11 12 13 12 10 7 8 9 10 11 11 11 11 11 12 13 11 10 9 8 8 7 7 6 7 6 6 6 5 5 6
5 5 5 5 3 2 4 3 8 8 9 8 8 8 8 7 7 5 7 6 5 6 6 5 3 4 4 5 6 4 1 8 13 12 12 11 12 14 15 16 16 17 17 16 14 13 14 15 14 14 13 13 11 11 11 11 10 11 12 11 10 9 9 11 11 11 11 11 11 10 10 10 8 8 7 7 6 5 5 5 4 5 4 5 5 4
4 3 1 3 2 2 4 6 5 7 7 8 6 6 8 8 8 7 6 6 5 6 6 6 4 4 3 4 4 6 1 9 10 11 12 12 11 11 13 13 15 13 13 15 14 13 16 15 15 15 15 13 11 11 13 12 11 13 13 12 12 9 11 11 11 11 11 11 10 9 10 9 11 10 6 6 6 4 2 4 7 7 6 5 4 2
6 6 1 5 5 5 8 6 4 5 5 9 8 8 6 6 6 6 7 6 5 6 5 4 4 3 4 4 4 9 5 7 10 12 13 12 11 10 10 11 13 14 13 13 12 13 15 13 15 15 14 13 12 12 12 13 13 15 15 11 10 11 11 11 11 11 13 11 10 9 8 9 8 9 8 8 8 8 6 4 6 7 6 5 2 3
4 4 8 4 6 2 3 3 5 3 3 4 5 2 4 5 5 6 4 8 6 3 3 4 4 3 6 3 3 8 7 5 8 8 11 13 13 12 12 11 12 12 13 12 10 11 12 11 13 12 12 10 12 13 13 13 14 14 15 14 12 12 11 11 11 11 12 10 10 9 9 8 9 9 9 9 9 10 9 14 14 9 5 4 7 12
6 6 6 4 3 2 3 2 4 7 6 6 6 4 6 4 0 2 6 5 5 3 5 5 3 3 6 7 4 6 8 6 9 8 10 11 13 12 12 11 10 10 11 12 11 11 13 13 13 11 12 11 12 13 13 13 14 15 15 13 13 13 13 12 10 10 10 10 10 10 8 7 9 9 8 8 9 10 10 6 9 13 12 10 10 13
Wind_Direction
190 207 203 205 205 203 211 216 215 221 235 219 219 214 215 228 238 219 243 184 180 194 208 220 204 206 170 168 166 170 179 193 185 181 181 99 82 62 134 140 136 136 122 147 146 145 122 131 137 132 136 131 96 68 96 136 159 141 93 80 95 104 95 112 120 116 125 131 133 132 123 107 85 121 101 26 37 23 273 236 116 85 115 63 37 26
208 210 211 203 206 203 206 216 215 224 241 251 235 224 214 218 239 221 226 213 166 202 204 216 214 217 178 173 165 164 174 191 192 194 153 99 122 133 116 108 87 78 182 147 152 140 126 119 127 129 125 111 114 121 127 144 97 78 93 108 125 122 116 106 103 104 110 115 106 141 117 99 103 46 55 64 38 282 257 19 46 42 29 48 56 45
209 212 205 204 204 212 206 209 216 217 233 241 249 228 223 219 236 230 215 229 171 186 224 196 226 222 203 167 170 167 174 188 196 199 134 132 132 137 141 136 162 166 190 163 141 133 126 135 155 144 125 128 129 140 139 128 114 118 120 133 141 126 120 116 117 115 122 118 122 106 95 109 77 97 122 150 93 260 239 46 45 33 25 17 28 47
204 213 205 203 203 211 208 207 211 217 231 236 238 250 220 216 214 224 225 200 150 171 225 196 213 228 229 149 158 176 178 175 189 184 135 149 149 152 153 155 153 182 177 169 159 151 155 155 155 134 131 136 138 141 132 136 127 135 144 156 145 122 119 129 122 112 105 80 93 108 111 123 135 150 146 60 192 233 79 58 55 46 20 29 18 29
206 194 200 203 204 207 212 203 206 210 222 229 239 240 237 214 210 238 208 156 172 174 232 250 213 221 224 144 152 183 176 175 183 169 136 118 157 161 163 152 156 171 169 163 160 157 160 162 149 143 142 137 141 144 145 148 147 157 157 152 135 129 127 136 127 122 120 122 123 91 104 80 44 2 54 197 208 114 96 87 55 45 21 28 25 24
204 199 192 203 200 203 212 202 205 207 219 221 228 236 237 221 217 220 204 132 174 216 195 236 249 220 196 152 165 158 167 138 62 173 144 129 168 176 176 178 165 165 169 165 166 170 171 164 147 137 138 139 140 144 150 153 141 125 125 132 132 133 134 135 135 126 133 145 97 82 51 58 33 21 15 248 163 96 76 79 74 50 33 32 32 8
203 191 192 201 201 198 207 213 199 208 216 219 207 228 244 254 230 228 144 165 178 223 207 208 238 230 160 168 138 146 136 103 50 40 125 126 165 194 174 179 178 168 168 169 158 164 173 152 128 127 134 139 142 140 142 142 126 130 133 128 126 126 119 116 121 130 141 112 93 94 107 89 83 46 345 311 62 83 86 89 79 70 46 36 35 8
205 193 192 198 202 198 204 213 199 202 213 218 198 220 235 253 250 236 214 192 193 196 242 209 217 248 211 163 143 140 134 133 109 48 75 142 148 222 236 200 182 173 167 161 163 166 163 158 132 130 130 143 142 136 139 129 117 129 139 136 130 118 123 124 125 132 115 114 115 117 123 94 97 98 300 283 71 84 80 67 70 79 72 16 14 52
201 192 193 193 202 199 205 209 197 199 214 212 202 213 224 237 255 274 259 227 224 210 228 216 206 225 251 124 149 142 124 146 171 167 186 184 180 180 212 246 187 176 161 157 165 164 158 149 137 125 136 142 140 143 139 140 136 140 138 128 122 123 129 128 132 133 121 112 113 117 105 97 95 104 222 237 91 87 85 87 83 79 105 106 49 41
196 206 188 196 199 202 203 202 204 194 210 214 224 201 221 230 251 257 266 219 201 221 234 220 199 222 232 139 150 146 140 178 180 183 175 180 177 180 187 184 284 222 161 159 164 153 149 147 141 127 130 136 142 140 132 130 126 132 134 129 125 118 131 136 127 115 116 112 120 111 101 94 97 118 228 221 126 97 95 90 108 128 100 78 80 45
186 208 191 198 199 204 196 196 210 194 211 208 233 191 211 219 231 267 248 198 215 228 238 237 201 208 233 200 165 157 182 175 168 162 161 182 189 187 180 186 209 245 206 155 150 143 138 139 126 128 139 141 143 133 135 139 139 137 133 137 131 128 121 112 108 106 102 109 125 123 128 123 112 176 218 174 126 92 112 142 179 117 96 62 47 53
186 188 203 192 199 202 195 195 211 201 196 215 218 208 197 197 223 262 279 214 212 220 224 229 224 190 224 223 197 173 160 166 158 174 179 188 192 185 187 193 180 175 133 112 130 136 134 131 131 138 145 149 144 140 140 137 138 139 139 132 128 128 123 114 112 115 130 146 147 158 146 143 164 195 178 93 112 153 158 195 161 132 116 109 76 57
188 190 198 192 197 200 185 200 197 193 188 212 215 219 191 173 184 219 208 213 237 243 226 226 228 214 208 180 256 166 169 167 164 173 176 175 184 182 181 162 159 148 154 148 148 149 141 148 144 147 149 147 150 148 146 148 144 142 137 133 128 126 121 117 122 130 144 130 124 107 95 90 87 91 98 96 106 216 108 41 42 44 72 65 63 56
185 185 198 193 184 197 189 198 177 188 190 207 207 211 194 179 184 211 203 215 237 236 258 240 214 260 295 236 226 247 161 176 172 168 171 175 171 168 169 146 149 149 155 158 149 150 151 159 153 146 152 155 151 148 147 143 136 133 131 130 126 126 121 125 132 146 139 119 107 103 99 91 83 80 88 76 38 48 59 67 65 56 58 75 69 58
178 186 197 177 184 182 205 206 186 188 190 203 203 214 219 191 189 198 206 203 215 233 221 257 206 225 239 248 187 240 168 161 171 168 159 165 158 159 152 149 149 157 158 162 156 157 151 158 152 153 154 151 144 147 146 141 142 137 135 137 134 132 134 137 139 122 113 110 108 100 97 94 91 89 85 71 42 46 69 65 58 34 39 63 72 58
208 198 161 168 179 185 211 212 202 185 196 203 186 198 214 214 171 209 191 220 213 216 220 216 259 157 214 348 50 301 164 146 148 169 149 162 150 152 150 152 159 161 157 161 154 154 154 155 151 154 154 146 141 148 147 144 142 142 141 137 136 136 142 138 122 112 102 98 95 89 88 87 85 95 91 73 57 60 56 69 68 61 53 66 74 59
192 188 155 173 203 184 211 205 210 185 200 184 187 200 211 212 211 179 188 225 63 296 225 184 227 231 205 174 52 360 127 144 163 171 162 147 156 146 151 153 156 151 155 148 147 153 155 148 135 139 140 142 140 146 145 140 145 140 132 131 132 134 137 122 109 102 98 92 87 92 100 107 108 97 89 93 91 77 70 75 80 82 74 72 87 103
175 174 177 180 203 194 204 208 210 185 216 174 204 197 209 222 238 190 205 178 240 223 219 209 214 210 235 209 133 94 243 154 189 151 154 146 151 148 152 156 155 144 153 146 153 155 148 130 136 131 139 145 146 151 146 145 145 140 135 132 129 129 126 117 110 108 107 103 98 96 98 99 102 109 115 114 108 103 106 95 82 84 78 75 77 82
173 180 181 185 194 187 200 207 219 188 203 209 197 184 213 175 222 200 204 200 195 217 217 220 225 217 219 208 152 149 166 160 123 136 152 148 151 141 149 150 154 150 150 149 156 157 147 146 146 150 147 135 139 150 150 142 136 131 131 134 130 124 120 115 109 109 108 104 102 104 107 109 105 110 111 115 124 124 105 96 94 86 89 99 187 199
186 188 160 180 198 173 193 202 207 190 195 220 188 204 216 235 211 206 193 221 195 210 226 219 222 217 214 217 159 178 178 180 146 142 147 154 153 153 152 147 156 155 150 151 157 157 154 148 149 145 145 142 146 154 147 134 131 134 135 133 126 122 118 111 110 107 104 102 107 110 107 107 119 122 121 119 107 106 108 112 120 115 126 167 228 246
179 187 171 173 183 164 203 192 204 195 180 203 202 194 193 235 189 239 188 218 190 214 201 236 222 210 228 246 237 190 185 187 168 156 157 162 156 150 150 146 154 153 150 149 154 158 154 146 142 136 146 151 143 127 134 141 139 134 129 122 119 116 110 108 107 106 101 106 115 120 110 105 108 109 101 93 90 91 96 99 101 135 168 181 175 301
200 159 166 161 186 185 201 194 209 197 190 200 206 200 198 198 197 198 217 198 210 196 204 207 246 221 194 179 222 229 175 187 192 181 159 158 150 153 153 151 159 159 152 149 153 153 154 145 125 131 170 146 144 170 151 141 131 128 127 122 117 109 107 109 111 116 119 118 114 112 112 108 103 102 109 113 121 122 120 118 127 148 164 122 170 200
229 139 153 181 198 188 197 185 220 203 191 203 204 215 199 196 228 197 214 197 214 205 221 214 238 220 117 169 236 264 150 183 192 201 157 149 145 145 152 151 154 147 145 147 148 145 148 141 137 155 165 164 172 168 150 139 134 130 127 123 122 121 122 122 122 120 120 119 120 118 118 117 119 116 112 114 106 110 123 134 142 142 136 144 114 135
129 160 168 188 197 185 191 192 205 223 196 202 210 225 201 202 217 209 209 205 213 207 200 196 217 196 354 14 344 83 95 34 190 196 154 142 143 137 136 140 137 112 129 122 134 130 151 139 140 161 162 159 164 159 156 140 135 133 133 134 133 130 128 126 123 120 120 116 115 120 128 128 126 123 122 116 123 137 140 130 134 138 124 175 268 60
196 174 180 178 179 171 188 187 196 214 212 209 204 209 224 215 188 207 204 217 219 219 225 194 209 156 161 40 338 141 142 187 188 241 158 132 134 152 148 140 127 127 122 137 143 151 171 157 157 160 156 156 154 146 135 138 138 140 138 136 133 129 128 125 120 124 122 117 122 125 123 117 113 112 115 126 134 134 134 133 130 129 110 70 77 90
224 164 181 182 184 178 187 189 187 191 201 196 213 193 217 235 192 179 211 202 227 208 233 247 155 71 80 28 55 213 164 132 60 90 103 134 147 147 143 133 134 136 151 159 152 150 176 170 158 153 143 138 138 134 132 135 140 140 137 134 130 125 119 119 120 118 121 125 133 135 120 113 120 129 136 134 123 121 121 123 119 113 115 103 80 68
192 175 201 200 195 194 201 190 179 187 188 207 198 194 202 232 212 198 205 222 211 194 226 233 192 168 132 106 69 320 297 169 137 98 111 129 140 142 136 129 131 142 157 161 156 166 168 164 154 144 136 131 134 134 137 141 141 135 128 127 125 123 124 125 130 128 129 140 141 129 120 118 121 127 130 132 135 144 149 151 150 129 122 138 97 76
201 188 199 205 201 193 203 186 172 190 195 207 205 192 204 218 221 192 193 220 233 202 207 226 142 132 130 120 163 223 254 81 72 60 93 112 131 141 145 124 135 142 151 164 162 171 158 144 140 142 136 135 137 138 141 143 138 134 132 129 128 123 125 132 135 134 135 141 137 132 130 133 133 135 134 139 138 136 132 122 104 96 85 78 85 89
181 229 256 248 222 190 191 192 175 185 200 200 209 193 204 209 224 215 162 213 225 248 237 184 159 164 150 189 167 183 102 91 97 108 58 56 111 145 149 148 162 161 170 180 155 145 142 142 146 147 141 138 141 146 145 138 132 131 135 136 136 137 137 134 134 135 143 142 133 132 133 136 140 141 148 138 140 143 122 97 87 90 92 103 96 89
207 214 236 222 209 207 202 187 167 190 196 197 204 200 201 206 211 225 213 198 215 229 260 284 204 223 178 182 163 170 113 126 125 127 130 143 162 143 143 151 158 165 165 164 157 148 146 145 149 150 142 144 150 145 135 133 138 143 143 140 140 139 139 139 140 142 141 142 139 139 137 136 143 147 141 141 142 134 127 127 124 112 95 83 83 81
250 219 216 181 222 222 314 119 179 194 197 208 199 207 202 203 204 214 229 213 203 237 233 236 287 306 225 133 153 121 117 128 140 140 174 159 136 137 142 148 150 153 156 156 152 146 146 147 150 153 147 153 150 139 138 143 144 143 142 142 144 143 145 144 142 141 141 143 147 141 142 144 141 144 145 138 124 122 125 120 111 104 96 86 81 78
216 274 199 190 211 191 261 242 303 246 188 201 199 208 204 201 205 201 210 196 203 219 232 217 215 215 15 93 111 129 127 141 151 156 157 156 151 158 156 159 163 156 152 156 149 143 143 147 155 153 151 148 146 147 146 146 148 147 147 146 145 144 145 141 137 138 140 145 146 147 146 145 143 141 145 145 134 123 116 108 104 105 106 96 85 81
190 252 202 177 208 217 223 251 289 212 184 196 203 196 204 205 217 193 198 201 199 213 223 211 226 118 122 119 135 142 148 142 148 152 155 157 152 145 166 180 173 166 159 158 152 146 146 149 151 149 148 147 146 143 139 135 129 124 121 113 117 116 125 130 129 137 144 149 152 150 150 151 143 144 149 134 125 127 121 114 116 109 98 91 93 94
182 234 212 173 210 174 184 230 310 336 197 181 347 235 211 208 200 208 191 196 181 196 218 209 237 119 130 130 143 157 158 153 145 144 152 159 166 171 174 182 181 166 161 153 142 139 143 144 146 141 127 121 125 133 137 130 121 115 113 115 115 120 130 131 133 141 149 152 152 153 159 152 150 145 134 129 128 128 121 121 112 99 91 93 94 92
186 214 243 155 205 147 172 179 268 242 199 35 333 13 295 209 202 220 202 193 197 191 221 228 230 145 131 137 166 162 155 108 116 151 152 157 163 187 192 165 168 167 160 149 139 138 139 142 137 129 137 140 131 124 119 116 117 121 124 129 134 137 135 136 142 151 154 153 155 158 154 148 137 128 129 130 129 126 119 117 115 104 102 103 101 99
183 211 236 157 196 113 148 161 195 228 356 297 352 291 16 339 226 184 210 200 202 200 199 235 227 204 152 157 101 69 128 102 108 143 151 151 161 175 195 164 149 146 154 136 130 137 141 144 142 144 141 135 140 139 131 127 132 134 137 142 142 141 140 143 148 150 155 149 149 150 149 138 128 129 130 130 127 122 122 117 110 109 109 99 91 92
185 210 232 187 177 147 174 181 190 38 293 335 272 266 343 206 220 243 195 202 196 199 202 213 222 234 178 108 106 83 106 129 144 159 177 151 159 167 181 158 152 135 115 129 137 143 146 146 147 143 136 142 141 141 141 141 140 141 142 143 143 144 146 151 150 152 155 152 148 150 144 133 132 135 137 134 130 128 124 116 107 104 111 110 107 99
182 218 184 223 153 156 175 190 167 193 216 217 67 360 352 342 272 233 278 266 189 200 207 205 216 232 174 132 129 139 156 134 166 176 171 150 154 155 165 155 152 133 127 134 138 140 144 149 142 136 145 144 143 142 144 146 145 146 144 141 143 145 150 152 153 156 156 152 149 144 131 132 135 138 137 134 133 121 112 112 112 109 105 108 107 95
198 238 156 256 200 179 201 218 196 203 205 33 125 40 349 14 300 167 207 240 215 259 196 203 207 222 143 132 138 143 154 181 187 181 154 156 154 158 156 153 151 136 137 142 145 141 142 142 141 146 149 144 140 144 145 146 146 144 141 143 146 149 153 157 153 160 159 147 151 134 125 139 139 138 138 132 120 118 123 121 116 111 102 102 107 109
182 192 236 236 231 207 206 224 223 57 140 217 171 254 274 235 259 158 202 211 143 241 231 226 231 225 128 141 145 159 183 214 210 148 151 158 156 155 155 148 139 138 143 148 149 145 147 145 146 154 150 144 141 144 141 143 146 145 143 146 149 152 155 155 158 154 139 137 127 117 124 133 136 139 131 117 118 127 117 113 115 121 128 123 119 123
185 188 213 227 207 171 188 235 123 137 108 147 153 141 80 141 179 188 204 91 348 349 333 247 224 216 140 148 150 177 94 94 116 135 148 151 150 153 138 121 132 138 147 153 148 145 146 148 152 151 145 142 147 144 144 148 149 149 150 148 151 154 158 162 149 137 137 133 126 131 135 136 125 111 113 123 124 119 123 125 129 134 127 112 104 103
182 188 188 231 215 210 200 232 225 87 128 125 135 129 136 148 160 195 46 295 319 356 360 346 248 139 122 123 138 78 114 120 120 139 143 148 150 146 129 132 136 140 142 141 144 151 147 154 151 144 142 145 148 145 151 156 154 152 148 152 151 150 156 150 136 137 137 134 137 133 130 125 120 121 125 127 129 132 125 126 124 106 98 102 114 128
178 203 187 202 217 236 219 213 222 176 185 188 132 120 116 240 84 359 339 50 17 23 2 33 10 91 114 104 84 107 110 120 136 142 144 141 143 139 139 139 142 139 140 144 153 148 145 141 142 141 138 143 147 154 155 153 147 140 142 133 130 137 141 131 131 133 135 139 131 123 115 111 117 124 136 131 129 127 126 121 111 104 109 128 140 132
154 208 189 208 211 223 209 221 232 63 135 147 159 95 85 71 102 104 31 56 34 24 34 45 61 31 9 103 112 107 116 127 136 152 141 142 137 141 141 141 129 130 138 140 142 142 141 141 141 140 146 150 153 149 143 142 140 141 136 128 128 121 127 130 133 136 136 125 116 116 123 132 140 137 128 129 129 129 124 112 109 114 127 141 142 141
152 180 33 1 160 274 28 83 65 50 79 62 81 102 96 97 85 84 73 66 52 51 36 72 79 137 173 127 102 120 139 136 133 139 140 142 141 148 152 138 130 138 140 140 143 145 148 144 142 146 149 149 144 137 143 146 140 138 136 135 125 130 132 136 138 131 123 123 125 130 145 141 133 132 130 129 126 121 122 124 127 131 154 164 162 154
66 113 164 101 86 99 86 84 111 106 85 86 86 94 100 86 91 71 73 71 71 61 61 75 89 107 107 102 108 114 144 132 145 132 120 122 132 134 120 128 134 136 139 143 148 153 146 141 143 150 150 149 146 144 145 145 137 136 134 139 140 140 145 140 130 128 132 133 145 150 147 137 132 127 127 124 125 126 133 140 142 157 175 176 168 162
87 77 117 103 114 219 111 175 112 113 117 104 99 94 85 84 74 84 88 84 75 87 78 87 115 65 87 142 125 108 219 140 150 128 120 108 109 125 135 136 142 146 148 150 154 148 141 147 154 157 155 147 143 135 132 137 135 133 137 154 161 165 151 131 130 133 141 148 148 138 136 133 129 128 127 130 131 136 133 136 161 178 182 167 169 155
161 68 317 155 130 46 95 78 76 94 115 106 112 113 104 102 92 82 85 75 78 89 106 96 69 119 146 113 109 126 130 120 133 132 134 126 125 134 138 141 141 143 150 151 152 150 148 157 161 158 151 146 146 137 134 141 145 143 152 161 173 157 133 133 140 145 148 149 141 139 138 130 132 130 107 74 71 69 79 99 76 60 41 16 341 168
332 290 250 202 123 91 131 117 65 59 81 70 69 63 68 80 96 98 92 86 64 65 84 104 102 133 120 117 157 123 157 140 146 141 134 131 137 134 137 146 148 146 148 153 157 152 156 161 161 159 150 146 141 136 136 146 151 156 159 163 152 136 136 143 151 152 149 142 143 135 129 134 122 99 103 98 82 71 46 354 75 82 64 21 5 333
9 36 332 297 105 76 56 8 292 185 126 104 85 49 66 67 65 100 96 108 109 102 76 110 137 119 110 180 145 131 147 150 143 146 149 148 145 146 145 151 154 151 154 156 154 160 152 155 152 151 137 137 137 135 143 151 156 160 162 159 152 150 150 150 147 147 148 145 139 135 141 135 115 111 103 102 104 90 66 48 50 46 75 78 32 52
53 36 22 22 78 104 175 219 61 87 77 77 90 62 43 49 5 130 133 121 94 111 136 123 96 152 138 166 166 158 150 160 144 150 141 145 153 150 158 155 160 156 157 157 156 155 154 157 151 140 142 142 133 136 144 155 161 164 162 158 160 156 149 152 151 151 146 141 142 147 146 122 116 116 115 108 106 96 96 89 54 48 54 71 66 66